TimeEST,TemperatureF,Dew PointF,Humidity,Sea Level PressureIn,VisibilityMPH,Wind Direction,Wind SpeedMPH,Gust SpeedMPH,PrecipitationIn,Events,Conditions,WindDirDegrees,DateUTC
12:55 AM,30.7,26.4,84,30.25,10.0,SW,3.5,-,N/A,,Overcast,230,2013-03-07 05:55:00
1:45 AM,32.0,24.8,75,30.26,10.0,Calm,Calm,-,N/A,,Overcast,0,2013-03-07 06:45:00
1:55 AM,30.6,25.7,82,30.26,10.0,Calm,Calm,-,N/A,,Overcast,0,2013-03-07 06:55:00
2:08 AM,30.2,24.8,80,30.26,10.0,Calm,Calm,-,N/A,,Overcast,0,2013-03-07 07:08:00
2:55 AM,30.6,25.9,83,30.26,10.0,WSW,3.5,-,N/A,,Overcast,250,2013-03-07 07:55:00
3:55 AM,29.5,26.1,87,30.26,10.0,SSW,3.5,-,N/A,,Overcast,210,2013-03-07 08:55:00
4:55 AM,29.7,25.9,86,30.28,10.0,Calm,Calm,-,N/A,,Overcast,0,2013-03-07 09:55:00
5:55 AM,30.2,25.9,84,30.30,10.0,SW,3.5,-,N/A,,Overcast,230,2013-03-07 10:55:00
6:55 AM,31.3,26.6,83,30.32,7.0,WNW,4.6,-,N/A,,Overcast,300,2013-03-07 11:55:00
7:20 AM,32.0,26.6,80,30.32,7.0,West,4.6,-,N/A,,Overcast,280,2013-03-07 12:20:00
7:55 AM,31.6,27.0,83,30.33,7.0,WNW,3.5,-,N/A,,Overcast,290,2013-03-07 12:55:00
8:55 AM,32.0,27.1,82,30.35,6.0,West,4.6,-,N/A,,Overcast,270,2013-03-07 13:55:00
9:55 AM,32.4,27.5,82,30.36,6.0,West,4.6,-,N/A,,Overcast,270,2013-03-07 14:55:00
10:55 AM,33.3,27.9,81,30.36,10.0,West,4.6,-,N/A,,Overcast,280,2013-03-07 15:55:00
11:31 AM,35.6,28.4,75,30.36,10.0,West,8.1,-,N/A,,Mostly Cloudy,270,2013-03-07 16:31:00
11:55 AM,35.8,28.2,74,30.36,7.0,West,11.5,-,N/A,,Mostly Cloudy,270,2013-03-07 16:55:00
12:55 PM,36.9,28.2,71,30.36,10.0,Variable,5.8,-,N/A,,Mostly Cloudy,0,2013-03-07 17:55:00
1:55 PM,37.9,28.0,68,30.34,10.0,WNW,8.1,-,N/A,,Mostly Cloudy,290,2013-03-07 18:55:00
2:55 PM,38.5,26.2,61,30.33,10.0,WNW,9.2,-,N/A,,Scattered Clouds,290,2013-03-07 19:55:00
3:55 PM,39.6,27.0,61,30.35,10.0,WNW,6.9,-,N/A,,Mostly Cloudy,300,2013-03-07 20:55:00
4:55 PM,37.4,26.2,64,30.35,10.0,NW,6.9,-,N/A,,Mostly Cloudy,310,2013-03-07 21:55:00
5:55 PM,36.9,25.7,64,30.36,10.0,WNW,6.9,-,N/A,,Mostly Cloudy,300,2013-03-07 22:55:00
6:55 PM,36.1,25.2,64,30.38,10.0,WNW,5.8,-,N/A,,Overcast,300,2013-03-07 23:55:00
7:55 PM,35.6,24.4,64,30.39,10.0,NW,6.9,-,N/A,,Mostly Cloudy,310,2013-03-08 00:55:00
8:55 PM,34.9,22.8,61,30.39,10.0,WNW,5.8,-,N/A,,Overcast,300,2013-03-08 01:55:00
9:55 PM,34.7,23.0,62,30.40,10.0,NW,5.8,-,N/A,,Overcast,320,2013-03-08 02:55:00
10:55 PM,33.3,23.0,66,30.39,10.0,NW,4.6,-,N/A,,Scattered Clouds,320,2013-03-08 03:55:00
11:55 PM,32.2,23.2,69,30.39,10.0,Calm,Calm,-,N/A,,Partly Cloudy,0,2013-03-08 04:55:00